Regional Weather Roundup
Issued by NWS

Home | Current Version | Previous Version | Graphics & Text | Print | Product List | Glossary On
Versions: 1 2 3 4 5 6 7 8 9 10 11 12 13 14 15 16 17 18 19 20 21 22 23 24 25 26 27 28 29 30 31 32 33 34 35 36 37 38 39 40 41 42 43 44 45 46 47 48 49 50
000
ASUS43 KLMK 230810
RWRKY
KENTUCKY REGIONAL WEATHER ROUNDUP
NATIONAL WEATHER SERVICE LOUISVILLE KY
400 AM EDT SAT JUN 23 2018

NOTE "FAIR" INDICATES FEW OR NO CLOUDS BELOW 12,000 FEET
WITH NO SIGNIFICANT WEATHER AND/OR OBSTRUCTIONS TO VISIBILITY.

KYZ001>023-026-027-061>063-070>075-230900-
WESTERN AND SOUTH CENTRAL KENTUCKY

CITY           SKY/WX    TMP DP  RH WIND       PRES   REMARKS
PADUCAH        FAIR      68  66  93 CALM      29.76S
HENDERSON      MOCLDY    68  65  90 W5        29.77R
OWENSBORO      CLOUDY    68  66  93 W8        29.76S
HOPKINSVILLE   FAIR      69  67  95 S5        29.78R
BOWLING GREEN  MOCLDY    70  66  87 SW7       29.78R
GLASGOW        MOCLDY    66  63  89 CALM      29.79R
$$

KYZ024-025-028>034-038-045-046-053-230900-
NORTH CENTRAL KENTUCKY

CITY           SKY/WX    TMP DP  RH WIND       PRES   REMARKS
LOUISVILLE/SDF CLOUDY    70  66  87 S6        29.74R
LOUISVILLE/LOU CLOUDY    70  68  93 SW6       29.74S
FORT KNOX      FAIR      65  65 100 SW6       29.76R
$$

KYZ035>037-039>044-047>052-055>060-089>105-230900-
NORTHEAST KENTUCKY

CITY           SKY/WX    TMP DP  RH WIND       PRES   REMARKS
LEXINGTON      MOCLDY    67  63  87 SW8       29.77S
COVINGTON      CLOUDY    68  64  87 SW7       29.72S
FRANKFORT      CLOUDY    67  63  87 S9        29.75R
$$

KYZ054-064>069-076>088-106>120-230900-
SOUTHEAST KENTUCKY

CITY           SKY/WX    TMP DP  RH WIND       PRES   REMARKS
JACKSON        FAIR      65  64  97 CALM      29.80F
LONDON         FAIR      67  66  97 S6        29.81S
SOMERSET       FAIR      64  64 100 CALM      29.81S
MIDDLESBORO    MOCLDY    66  66 100 CALM      29.83S
MONTICELLO     CLOUDY    65  65 100 W8        29.83
$$




USA.gov is the U.S. government's official web portal to all federal, state and local government web resources and services.